Terug naar catalogus

BREEZE-M DEB

TANK

ActiefHEO
NORAD 28528·DEBRIS·🇷🇺 Russia

Gelanceerd Feb 3, 2005 vanaf Baikonur Cosmodrome

Loading…

Volgende Passages (komende 24 uur)

TLE

VersSource: Space-Track

Epoch: Sep 13, 2026, 10:46 UTC

1 28528U 05003C   26256.44920871  .00002743  00000-0  40468-3 0  9990
2 28528  49.5669  45.2588 5007167 277.4353  30.6556  5.61815578417165

Volg BREEZE-M DEB in realtime met AllMySat

Download on the App Store